contact:dominique.lefevre@mio.osupytheas.fr, maurice.libes@osupytheas.fr, didier.mallarino@osupytheas.fr
Project:EMSO http://www.emso-fr.org/EMSO-France
Depth: 2436.0 m
Title:EMSO Ligure Ouest : Data MII capteur MICROCAT
DateTime_Computer,Latitude,Longitude,Temperature,Conductivity,Pressure,DateTime_Instrument
DateTime_Computer,Latitude,Longitude,degC,S m-1,dbar,DateTime_Instrument
2019-05-31T00:00:18Z,42.805,6.029,13.2965,4.59971,2469.667,2019-5-31T02:00:33Z
2019-05-31T00:03:21Z,42.805,6.029,13.2961,4.59968,2469.657,2019-5-31T02:03:36Z
2019-05-31T00:06:24Z,42.805,6.029,13.2955,4.59964,2469.643,2019-5-31T02:06:39Z
2019-05-31T00:09:27Z,42.805,6.029,13.2962,4.59980,2469.68,2019-5-31T02:09:42Z
2019-05-31T00:12:30Z,42.805,6.029,13.2961,4.59972,2469.68,2019-5-31T02:12:45Z
2019-05-31T00:15:33Z,42.805,6.029,13.2957,4.59962,2469.667,2019-5-31T02:15:48Z
2019-05-31T00:18:36Z,42.805,6.029,13.2958,4.59966,2469.643,2019-5-31T02:18:51Z
2019-05-31T00:21:39Z,42.805,6.029,13.2957,4.59965,2469.643,2019-5-31T02:21:54Z
2019-05-31T00:24:42Z,42.805,6.029,13.2958,4.59971,2469.667,2019-5-31T02:24:57Z
2019-05-31T00:27:45Z,42.805,6.029,13.2958,4.59971,2469.657,2019-5-31T02:28:00Z
2019-05-31T00:30:48Z,42.805,6.029,13.2960,4.59966,2469.68,2019-5-31T02:31:03Z
2019-05-31T00:33:51Z,42.805,6.029,13.2960,4.59970,2469.643,2019-5-31T02:34:05Z
2019-05-31T00:36:53Z,42.805,6.029,13.2961,4.59970,2469.69,2019-5-31T02:37:08Z
2019-05-31T00:39:56Z,42.805,6.029,13.2961,4.59984,2469.667,2019-5-31T02:40:11Z
2019-05-31T00:42:59Z,42.805,6.029,13.2962,4.59966,2469.68,2019-5-31T02:43:14Z
2019-05-31T00:46:02Z,42.805,6.029,13.2962,4.59964,2469.68,2019-5-31T02:46:17Z
2019-05-31T00:49:05Z,42.805,6.029,13.2958,4.59964,2469.68,2019-5-31T02:49:20Z
2019-05-31T00:52:08Z,42.805,6.029,13.2962,4.59971,2469.69,2019-5-31T02:52:23Z
2019-05-31T00:55:11Z,42.805,6.029,13.2961,4.59974,2469.657,2019-5-31T02:55:26Z
2019-05-31T00:58:14Z,42.805,6.029,13.2956,4.59966,2469.68,2019-5-31T02:58:29Z
2019-05-31T01:01:17Z,42.805,6.029,13.2966,4.59974,2469.68,2019-5-31T03:01:32Z
2019-05-31T01:04:20Z,42.805,6.029,13.2956,4.59964,2469.667,2019-5-31T03:04:35Z
2019-05-31T01:07:23Z,42.805,6.029,13.2961,4.59992,2469.68,2019-5-31T03:07:38Z
2019-05-31T01:10:26Z,42.805,6.029,13.2971,4.59971,2469.69,2019-5-31T03:10:41Z
2019-05-31T01:13:29Z,42.805,6.029,13.2961,4.59966,2469.667,2019-5-31T03:13:44Z
2019-05-31T01:16:32Z,42.805,6.029,13.2954,4.59968,2469.69,2019-5-31T03:16:47Z
2019-05-31T01:19:35Z,42.805,6.029,13.2964,4.59975,2469.704,2019-5-31T03:19:50Z
2019-05-31T01:22:38Z,42.805,6.029,13.2961,4.59968,2469.704,2019-5-31T03:22:53Z
2019-05-31T01:25:41Z,42.805,6.029,13.2958,4.59969,2469.68,2019-5-31T03:25:56Z
2019-05-31T01:28:44Z,42.805,6.029,13.2958,4.59968,2469.69,2019-5-31T03:28:59Z
2019-05-31T01:31:47Z,42.805,6.029,13.2962,4.59976,2469.68,2019-5-31T03:32:02Z
2019-05-31T01:34:49Z,42.805,6.029,13.2962,4.59977,2469.69,2019-5-31T03:35:04Z
2019-05-31T01:37:52Z,42.805,6.029,13.2957,4.59967,2469.704,2019-5-31T03:38:07Z
2019-05-31T01:40:55Z,42.805,6.029,13.2968,4.59973,2469.667,2019-5-31T03:41:10Z
2019-05-31T01:43:58Z,42.805,6.029,13.2958,4.59964,2469.69,2019-5-31T03:44:13Z
2019-05-31T01:47:01Z,42.805,6.029,13.2964,4.59968,2469.667,2019-5-31T03:47:16Z
2019-05-31T01:50:04Z,42.805,6.029,13.2961,4.59963,2469.704,2019-5-31T03:50:19Z
2019-05-31T01:53:07Z,42.805,6.029,13.2953,4.59963,2469.69,2019-5-31T03:53:22Z
2019-05-31T01:56:10Z,42.805,6.029,13.2957,4.59960,2469.713,2019-5-31T03:56:25Z
2019-05-31T01:59:13Z,42.805,6.029,13.2964,4.59969,2469.704,2019-5-31T03:59:28Z
2019-05-31T02:02:16Z,42.805,6.029,13.2958,4.59966,2469.69,2019-5-31T04:02:31Z
2019-05-31T02:05:19Z,42.805,6.029,13.2959,4.59971,2469.69,2019-5-31T04:05:34Z
2019-05-31T02:08:22Z,42.805,6.029,13.2958,4.59964,2469.727,2019-5-31T04:08:37Z
2019-05-31T02:11:25Z,42.805,6.029,13.2958,4.59966,2469.727,2019-5-31T04:11:40Z
2019-05-31T02:14:28Z,42.805,6.029,13.2961,4.59964,2469.704,2019-5-31T04:14:43Z
2019-05-31T02:17:31Z,42.805,6.029,13.2962,4.59983,2469.69,2019-5-31T04:17:46Z
2019-05-31T02:20:34Z,42.805,6.029,13.2963,4.59973,2469.727,2019-5-31T04:20:49Z
2019-05-31T02:23:37Z,42.805,6.029,13.2954,4.59976,2469.69,2019-5-31T04:23:52Z
2019-05-31T02:26:40Z,42.805,6.029,13.2957,4.59975,2469.727,2019-5-31T04:26:55Z
2019-05-31T02:29:43Z,42.805,6.029,13.2954,4.59968,2469.704,2019-5-31T04:29:58Z
2019-05-31T02:32:45Z,42.805,6.029,13.2961,4.59963,2469.737,2019-5-31T04:33:00Z
2019-05-31T02:35:48Z,42.805,6.029,13.2958,4.59964,2469.704,2019-5-31T04:36:03Z
2019-05-31T02:38:51Z,42.805,6.029,13.2958,4.59967,2469.727,2019-5-31T04:39:06Z
2019-05-31T02:41:54Z,42.805,6.029,13.2962,4.59966,2469.737,2019-5-31T04:42:09Z
2019-05-31T02:44:57Z,42.805,6.029,13.2968,4.59974,2469.713,2019-5-31T04:45:12Z
2019-05-31T02:48:00Z,42.805,6.029,13.2962,4.59963,2469.773,2019-5-31T04:48:15Z
2019-05-31T02:51:03Z,42.805,6.029,13.2959,4.59961,2469.727,2019-5-31T04:51:18Z
2019-05-31T02:54:06Z,42.805,6.029,13.2962,4.59968,2469.75,2019-5-31T04:54:21Z
2019-05-31T02:57:09Z,42.805,6.029,13.2958,4.59964,2469.737,2019-5-31T04:57:24Z
2019-05-31T03:00:12Z,42.805,6.029,13.2960,4.59961,2469.737,2019-5-31T05:00:27Z
2019-05-31T03:03:15Z,42.805,6.029,13.2958,4.59965,2469.737,2019-5-31T05:03:30Z
2019-05-31T03:06:18Z,42.805,6.029,13.2961,4.59972,2469.76,2019-5-31T05:06:33Z
2019-05-31T03:09:21Z,42.805,6.029,13.2964,4.59969,2469.75,2019-5-31T05:09:36Z
2019-05-31T03:12:24Z,42.805,6.029,13.2956,4.59964,2469.76,2019-5-31T05:12:39Z
2019-05-31T03:15:27Z,42.805,6.029,13.2961,4.59963,2469.76,2019-5-31T05:15:42Z
2019-05-31T03:18:30Z,42.805,6.029,13.2960,4.59964,2469.773,2019-5-31T05:18:45Z
2019-05-31T03:21:33Z,42.805,6.029,13.2956,4.59967,2469.737,2019-5-31T05:21:48Z
2019-05-31T03:24:36Z,42.805,6.029,13.2952,4.59964,2469.773,2019-5-31T05:24:51Z
2019-05-31T03:27:39Z,42.805,6.029,13.2957,4.59962,2469.75,2019-5-31T05:27:54Z
2019-05-31T03:30:42Z,42.805,6.029,13.2963,4.59973,2469.783,2019-5-31T05:30:57Z
2019-05-31T03:33:44Z,42.805,6.029,13.2956,4.59976,2469.76,2019-5-31T05:33:59Z
2019-05-31T03:36:47Z,42.805,6.029,13.2956,4.59971,2469.773,2019-5-31T05:37:02Z
2019-05-31T03:39:50Z,42.805,6.029,13.2959,4.59958,2469.797,2019-5-31T05:40:05Z
2019-05-31T03:42:53Z,42.805,6.029,13.2958,4.59966,2469.783,2019-5-31T05:43:08Z
2019-05-31T03:45:56Z,42.805,6.029,13.2961,4.59964,2469.773,2019-5-31T05:46:11Z
2019-05-31T03:48:59Z,42.805,6.029,13.2958,4.59966,2469.773,2019-5-31T05:49:14Z
2019-05-31T03:52:02Z,42.805,6.029,13.2954,4.59965,2469.737,2019-5-31T05:52:17Z
2019-05-31T03:55:05Z,42.805,6.029,13.2960,4.59962,2469.783,2019-5-31T05:55:20Z
2019-05-31T03:58:08Z,42.805,6.029,13.2964,4.59964,2469.773,2019-5-31T05:58:23Z
2019-05-31T04:01:11Z,42.805,6.029,13.2956,4.59981,2469.76,2019-5-31T06:01:26Z
2019-05-31T04:04:14Z,42.805,6.029,13.2961,4.59985,2469.76,2019-5-31T06:04:29Z
2019-05-31T04:07:17Z,42.805,6.029,13.2961,4.59968,2469.783,2019-5-31T06:07:32Z
2019-05-31T04:10:20Z,42.805,6.029,13.2958,4.59994,2469.76,2019-5-31T06:10:35Z
2019-05-31T04:13:23Z,42.805,6.029,13.2958,4.59967,2469.806,2019-5-31T06:13:38Z
2019-05-31T04:16:26Z,42.805,6.029,13.2962,4.59976,2469.783,2019-5-31T06:16:41Z
2019-05-31T04:19:29Z,42.805,6.029,13.2958,4.59975,2469.797,2019-5-31T06:19:44Z
2019-05-31T04:22:32Z,42.805,6.029,13.2962,4.59969,2469.76,2019-5-31T06:22:47Z
2019-05-31T04:25:35Z,42.805,6.029,13.2956,4.59967,2469.797,2019-5-31T06:25:50Z
2019-05-31T04:28:38Z,42.805,6.029,13.2954,4.59957,2469.797,2019-5-31T06:28:53Z
2019-05-31T04:31:40Z,42.805,6.029,13.2958,4.59967,2469.783,2019-5-31T06:31:55Z
2019-05-31T04:34:43Z,42.805,6.029,13.2959,4.59964,2469.76,2019-5-31T06:34:58Z
2019-05-31T04:37:46Z,42.805,6.029,13.2958,4.59964,2469.76,2019-5-31T06:38:01Z
2019-05-31T04:40:49Z,42.805,6.029,13.2962,4.59968,2469.783,2019-5-31T06:41:04Z
2019-05-31T04:43:52Z,42.805,6.029,13.2960,4.59973,2469.821,2019-5-31T06:44:07Z
2019-05-31T04:46:55Z,42.805,6.029,13.2961,4.59967,2469.806,2019-5-31T06:47:10Z
2019-05-31T04:49:58Z,42.805,6.029,13.2958,4.59971,2469.806,2019-5-31T06:50:13Z
2019-05-31T04:53:01Z,42.805,6.029,13.2960,4.59965,2469.821,2019-5-31T06:53:16Z
2019-05-31T04:56:04Z,42.805,6.029,13.2964,4.59966,2469.797,2019-5-31T06:56:19Z
2019-05-31T04:59:07Z,42.805,6.029,13.2961,4.59968,2469.806,2019-5-31T06:59:22Z
2019-05-31T05:02:10Z,42.805,6.029,13.2955,4.59973,2469.821,2019-5-31T07:02:25Z
2019-05-31T05:05:13Z,42.805,6.029,13.2958,4.59961,2469.797,2019-5-31T07:05:28Z
2019-05-31T05:08:16Z,42.805,6.029,13.2958,4.59962,2469.806,2019-5-31T07:08:31Z
2019-05-31T05:11:19Z,42.805,6.029,13.2960,4.59963,2469.76,2019-5-31T07:11:34Z
2019-05-31T05:14:22Z,42.805,6.029,13.2964,4.59970,2469.821,2019-5-31T07:14:37Z
2019-05-31T05:17:25Z,42.805,6.029,13.2965,4.59976,2469.806,2019-5-31T07:17:40Z
2019-05-31T05:20:28Z,42.805,6.029,13.2959,4.59973,2469.821,2019-5-31T07:20:43Z
2019-05-31T05:23:31Z,42.805,6.029,13.2953,4.59966,2469.806,2019-5-31T07:23:46Z
2019-05-31T05:26:34Z,42.805,6.029,13.2953,4.59966,2469.821,2019-5-31T07:26:49Z
2019-05-31T05:29:37Z,42.805,6.029,13.2957,4.59961,2469.797,2019-5-31T07:29:52Z
2019-05-31T05:32:40Z,42.805,6.029,13.2957,4.59966,2469.773,2019-5-31T07:32:55Z
2019-05-31T05:35:42Z,42.805,6.029,13.2958,4.59961,2469.783,2019-5-31T07:35:57Z
2019-05-31T05:38:45Z,42.805,6.029,13.2958,4.59965,2469.797,2019-5-31T07:39:00Z
2019-05-31T05:41:48Z,42.805,6.029,13.2963,4.59975,2469.773,2019-5-31T07:42:03Z
2019-05-31T05:44:51Z,42.805,6.029,13.2961,4.59984,2469.76,2019-5-31T07:45:06Z
2019-05-31T05:47:54Z,42.805,6.029,13.2957,4.59966,2469.76,2019-5-31T07:48:09Z
2019-05-31T05:50:57Z,42.805,6.029,13.2959,4.59964,2469.821,2019-5-31T07:51:12Z
2019-05-31T05:54:00Z,42.805,6.029,13.2958,4.59968,2469.783,2019-5-31T07:54:15Z
2019-05-31T05:57:03Z,42.805,6.029,13.2961,4.59968,2469.821,2019-5-31T07:57:18Z
2019-05-31T06:00:06Z,42.805,6.029,13.2961,4.59976,2469.737,2019-5-31T08:00:21Z
2019-05-31T06:03:09Z,42.805,6.029,13.2958,4.59968,2469.76,2019-5-31T08:03:24Z
2019-05-31T06:06:12Z,42.805,6.029,13.2961,4.59965,2469.783,2019-5-31T08:06:27Z
2019-05-31T06:09:15Z,42.805,6.029,13.2954,4.59969,2469.797,2019-5-31T08:09:30Z
2019-05-31T06:12:18Z,42.805,6.029,13.2959,4.59971,2469.76,2019-5-31T08:12:33Z
2019-05-31T06:15:21Z,42.805,6.029,13.2957,4.59966,2469.773,2019-5-31T08:15:36Z
2019-05-31T06:18:24Z,42.805,6.029,13.2956,4.59964,2469.737,2019-5-31T08:18:39Z
2019-05-31T06:21:27Z,42.805,6.029,13.2961,4.59971,2469.76,2019-5-31T08:21:42Z
2019-05-31T06:24:30Z,42.805,6.029,13.2957,4.59966,2469.773,2019-5-31T08:24:45Z
2019-05-31T06:27:33Z,42.805,6.029,13.2977,4.59989,2469.76,2019-5-31T08:27:48Z
2019-05-31T06:30:36Z,42.805,6.029,13.2957,4.59966,2469.773,2019-5-31T08:30:51Z
2019-05-31T06:33:38Z,42.805,6.029,13.2961,4.59973,2469.773,2019-5-31T08:33:53Z
2019-05-31T06:36:41Z,42.805,6.029,13.2956,4.59968,2469.811,2019-5-31T08:36:56Z
2019-05-31T06:39:44Z,42.805,6.029,13.2961,4.59963,2469.783,2019-5-31T08:39:59Z
2019-05-31T06:42:47Z,42.805,6.029,13.2964,4.59972,2469.737,2019-5-31T08:43:02Z
2019-05-31T06:45:50Z,42.805,6.029,13.2958,4.59968,2469.76,2019-5-31T08:46:05Z
2019-05-31T06:48:53Z,42.805,6.029,13.2954,4.59964,2469.773,2019-5-31T08:49:08Z
2019-05-31T06:51:56Z,42.805,6.029,13.2957,4.59970,2469.75,2019-5-31T08:52:11Z
2019-05-31T06:54:59Z,42.805,6.029,13.2961,4.59981,2469.76,2019-5-31T08:55:14Z
2019-05-31T06:58:02Z,42.805,6.029,13.2965,4.59978,2469.727,2019-5-31T08:58:17Z
2019-05-31T07:01:05Z,42.805,6.029,13.2954,4.59967,2469.773,2019-5-31T09:01:20Z
2019-05-31T07:04:08Z,42.805,6.029,13.2958,4.59969,2469.76,2019-5-31T09:04:23Z
2019-05-31T07:07:11Z,42.805,6.029,13.2957,4.59971,2469.773,2019-5-31T09:07:26Z
2019-05-31T07:10:14Z,42.805,6.029,13.2961,4.59988,2469.737,2019-5-31T09:10:29Z
2019-05-31T07:13:17Z,42.805,6.029,13.2958,4.59976,2469.76,2019-5-31T09:13:32Z
2019-05-31T07:16:20Z,42.805,6.029,13.2959,4.59971,2469.75,2019-5-31T09:16:35Z
2019-05-31T07:19:23Z,42.805,6.029,13.2965,4.59976,2469.737,2019-5-31T09:19:38Z
2019-05-31T07:22:26Z,42.805,6.029,13.2958,4.59973,2469.75,2019-5-31T09:22:41Z
2019-05-31T07:25:29Z,42.805,6.029,13.2964,4.60003,2469.75,2019-5-31T09:25:44Z
2019-05-31T07:28:32Z,42.805,6.029,13.2961,4.59991,2469.727,2019-5-31T09:28:47Z
2019-05-31T07:31:35Z,42.805,6.029,13.2963,4.59979,2469.737,2019-5-31T09:31:50Z
2019-05-31T07:34:37Z,42.805,6.029,13.2964,4.59973,2469.737,2019-5-31T09:34:52Z
2019-05-31T07:37:40Z,42.805,6.029,13.2963,4.59984,2469.727,2019-5-31T09:37:55Z
2019-05-31T07:40:43Z,42.805,6.029,13.2961,4.59996,2469.76,2019-5-31T09:40:58Z
2019-05-31T07:43:46Z,42.805,6.029,13.2964,4.59981,2469.713,2019-5-31T09:44:01Z
2019-05-31T07:46:49Z,42.805,6.029,13.2957,4.59973,2469.75,2019-5-31T09:47:04Z
2019-05-31T07:49:52Z,42.805,6.029,13.2972,4.60001,2469.737,2019-5-31T09:50:07Z
2019-05-31T07:52:55Z,42.805,6.029,13.2955,4.59971,2469.713,2019-5-31T09:53:10Z
2019-05-31T07:55:58Z,42.805,6.029,13.2962,4.59972,2469.75,2019-5-31T09:56:13Z
2019-05-31T07:59:01Z,42.805,6.029,13.2964,4.59976,2469.75,2019-5-31T09:59:16Z
2019-05-31T08:02:04Z,42.805,6.029,13.2958,4.59967,2469.75,2019-5-31T10:02:19Z
2019-05-31T08:05:07Z,42.805,6.029,13.2962,4.59966,2469.727,2019-5-31T10:05:22Z
2019-05-31T08:08:10Z,42.805,6.029,13.2959,4.59965,2469.69,2019-5-31T10:08:25Z
2019-05-31T08:11:13Z,42.805,6.029,13.2964,4.59984,2469.713,2019-5-31T10:11:28Z
2019-05-31T08:14:16Z,42.805,6.029,13.2963,4.60005,2469.713,2019-5-31T10:14:31Z
2019-05-31T08:17:19Z,42.805,6.029,13.2960,4.59972,2469.704,2019-5-31T10:17:34Z
2019-05-31T08:20:22Z,42.805,6.029,13.2965,4.59983,2469.727,2019-5-31T10:20:37Z
2019-05-31T08:23:25Z,42.805,6.029,13.2968,4.59973,2469.713,2019-5-31T10:23:40Z
2019-05-31T08:26:28Z,42.805,6.029,13.2964,4.59980,2469.727,2019-5-31T10:26:43Z
2019-05-31T08:29:31Z,42.805,6.029,13.2966,4.59985,2469.69,2019-5-31T10:29:46Z
2019-05-31T08:32:34Z,42.805,6.029,13.2974,4.59982,2469.667,2019-5-31T10:32:49Z
2019-05-31T08:35:36Z,42.805,6.029,13.2961,4.59992,2469.69,2019-5-31T10:35:51Z
2019-05-31T08:38:39Z,42.805,6.029,13.2964,4.59977,2469.69,2019-5-31T10:38:54Z
2019-05-31T08:41:42Z,42.805,6.029,13.2961,4.59984,2469.704,2019-5-31T10:41:57Z
2019-05-31T08:44:45Z,42.805,6.029,13.2959,4.59969,2469.68,2019-5-31T10:45:00Z
2019-05-31T08:47:48Z,42.805,6.029,13.2962,4.59969,2469.704,2019-5-31T10:48:03Z
2019-05-31T08:50:51Z,42.805,6.029,13.2961,4.59971,2469.69,2019-5-31T10:51:06Z
2019-05-31T08:53:54Z,42.805,6.029,13.2960,4.59965,2469.68,2019-5-31T10:54:09Z
2019-05-31T08:56:57Z,42.805,6.029,13.2968,4.59972,2469.667,2019-5-31T10:57:12Z
2019-05-31T09:00:00Z,42.805,6.029,13.2961,4.59973,2469.667,2019-5-31T11:00:15Z
2019-05-31T09:03:03Z,42.805,6.029,13.2968,4.59979,2469.667,2019-5-31T11:03:18Z
2019-05-31T09:06:06Z,42.805,6.029,13.2958,4.59977,2469.68,2019-5-31T11:06:21Z
2019-05-31T09:09:09Z,42.805,6.029,13.2964,4.59977,2469.667,2019-5-31T11:09:24Z
2019-05-31T09:12:12Z,42.805,6.029,13.2963,4.59990,2469.62,2019-5-31T11:12:27Z
2019-05-31T09:15:15Z,42.805,6.029,13.2955,4.59981,2469.68,2019-5-31T11:15:30Z
2019-05-31T09:18:18Z,42.805,6.029,13.2962,4.59984,2469.68,2019-5-31T11:18:33Z
2019-05-31T09:21:21Z,42.805,6.029,13.2962,4.59981,2469.68,2019-5-31T11:21:36Z
2019-05-31T09:24:24Z,42.805,6.029,13.2958,4.59973,2469.68,2019-5-31T11:24:39Z
2019-05-31T09:27:27Z,42.805,6.029,13.2962,4.59990,2469.657,2019-5-31T11:27:42Z
2019-05-31T09:30:30Z,42.805,6.029,13.2968,4.59991,2469.667,2019-5-31T11:30:45Z
2019-05-31T09:33:33Z,42.805,6.029,13.2962,4.59988,2469.667,2019-5-31T11:33:48Z
2019-05-31T09:36:36Z,42.805,6.029,13.2962,4.59966,2469.643,2019-5-31T11:36:51Z
2019-05-31T09:39:39Z,42.805,6.029,13.2961,4.59969,2469.643,2019-5-31T11:39:54Z
2019-05-31T09:42:41Z,42.805,6.029,13.2958,4.59986,2469.667,2019-5-31T11:42:56Z
2019-05-31T09:45:44Z,42.805,6.029,13.2967,4.59976,2469.657,2019-5-31T11:45:59Z
2019-05-31T09:48:47Z,42.805,6.029,13.2968,4.59979,2469.667,2019-5-31T11:49:02Z
2019-05-31T09:51:50Z,42.805,6.029,13.2969,4.59986,2469.657,2019-5-31T11:52:05Z
2019-05-31T09:54:53Z,42.805,6.029,13.2968,4.59991,2469.657,2019-5-31T11:55:08Z
2019-05-31T09:57:56Z,42.805,6.029,13.2960,4.59972,2469.657,2019-5-31T11:58:11Z
2019-05-31T10:00:59Z,42.805,6.029,13.2961,4.59966,2469.657,2019-5-31T12:01:14Z
2019-05-31T10:04:02Z,42.805,6.029,13.2960,4.59979,2469.657,2019-5-31T12:04:17Z
2019-05-31T10:07:05Z,42.805,6.029,13.2965,4.59979,2469.657,2019-5-31T12:07:20Z
2019-05-31T10:10:08Z,42.805,6.029,13.2958,4.59970,2469.62,2019-5-31T12:10:23Z
2019-05-31T10:13:11Z,42.805,6.029,13.2957,4.59966,2469.667,2019-5-31T12:13:26Z
2019-05-31T10:16:14Z,42.805,6.029,13.2959,4.59983,2469.657,2019-5-31T12:16:29Z
2019-05-31T10:19:17Z,42.805,6.029,13.2961,4.59986,2469.667,2019-5-31T12:19:32Z
2019-05-31T10:22:20Z,42.805,6.029,13.2959,4.59993,2469.643,2019-5-31T12:22:35Z
2019-05-31T10:25:23Z,42.805,6.029,13.2967,4.59976,2469.643,2019-5-31T12:25:38Z
2019-05-31T10:28:26Z,42.805,6.029,13.2959,4.59972,2469.657,2019-5-31T12:28:41Z
2019-05-31T10:31:29Z,42.805,6.029,13.2958,4.59973,2469.647,2019-5-31T12:31:44Z
2019-05-31T10:34:32Z,42.805,6.029,13.2961,4.59973,2469.634,2019-5-31T12:34:47Z
2019-05-31T10:37:35Z,42.805,6.029,13.2962,4.59971,2469.597,2019-5-31T12:37:50Z
2019-05-31T10:40:38Z,42.805,6.029,13.2962,4.59968,2469.62,2019-5-31T12:40:53Z
2019-05-31T10:43:41Z,42.805,6.029,13.2957,4.59979,2469.597,2019-5-31T12:43:56Z
2019-05-31T10:46:44Z,42.805,6.029,13.2957,4.59969,2469.62,2019-5-31T12:46:59Z
2019-05-31T10:49:46Z,42.805,6.029,13.2964,4.59968,2469.657,2019-5-31T12:50:01Z
2019-05-31T10:52:49Z,42.805,6.029,13.2960,4.59979,2469.62,2019-5-31T12:53:04Z
2019-05-31T10:55:52Z,42.805,6.029,13.2968,4.59972,2469.657,2019-5-31T12:56:07Z
2019-05-31T10:58:55Z,42.805,6.029,13.2958,4.59976,2469.61,2019-5-31T12:59:10Z
2019-05-31T11:01:58Z,42.805,6.029,13.2964,4.59995,2469.657,2019-5-31T13:02:13Z
2019-05-31T11:05:01Z,42.805,6.029,13.2967,4.59991,2469.643,2019-5-31T13:05:16Z
2019-05-31T11:08:04Z,42.805,6.029,13.2962,4.59986,2469.62,2019-5-31T13:08:19Z
2019-05-31T11:11:07Z,42.805,6.029,13.2963,4.59973,2469.643,2019-5-31T13:11:22Z
2019-05-31T11:14:10Z,42.805,6.029,13.2956,4.59986,2469.597,2019-5-31T13:14:25Z
2019-05-31T11:17:13Z,42.805,6.029,13.2957,4.59964,2469.643,2019-5-31T13:17:28Z
2019-05-31T11:20:16Z,42.805,6.029,13.2962,4.59975,2469.597,2019-5-31T13:20:31Z
2019-05-31T11:23:19Z,42.805,6.029,13.2961,4.59981,2469.634,2019-5-31T13:23:34Z
2019-05-31T11:26:22Z,42.805,6.029,13.2968,4.59982,2469.634,2019-5-31T13:26:37Z
2019-05-31T11:29:25Z,42.805,6.029,13.2963,4.59985,2469.61,2019-5-31T13:29:40Z
2019-05-31T11:32:28Z,42.805,6.029,13.2957,4.59976,2469.573,2019-5-31T13:32:43Z
2019-05-31T11:35:31Z,42.805,6.029,13.2963,4.59978,2469.62,2019-5-31T13:35:46Z
2019-05-31T11:38:34Z,42.805,6.029,13.2962,4.59979,2469.61,2019-5-31T13:38:49Z
2019-05-31T11:41:37Z,42.805,6.029,13.2961,4.59982,2469.573,2019-5-31T13:41:52Z
2019-05-31T11:44:40Z,42.805,6.029,13.2956,4.59976,2469.634,2019-5-31T13:44:55Z
2019-05-31T11:47:43Z,42.805,6.029,13.2956,4.59969,2469.62,2019-5-31T13:47:58Z
2019-05-31T11:50:46Z,42.805,6.029,13.2964,4.59978,2469.597,2019-5-31T13:51:01Z
2019-05-31T11:53:48Z,42.805,6.029,13.2963,4.59979,2469.62,2019-5-31T13:54:03Z
2019-05-31T11:56:51Z,42.805,6.029,13.2961,4.59966,2469.597,2019-5-31T13:57:06Z
2019-05-31T11:59:54Z,42.805,6.029,13.2957,4.59980,2469.559,2019-5-31T14:00:09Z
2019-05-31T12:02:57Z,42.805,6.029,13.2957,4.59970,2469.597,2019-5-31T14:03:12Z
2019-05-31T12:06:00Z,42.805,6.029,13.2958,4.59964,2469.61,2019-5-31T14:06:15Z
2019-05-31T12:09:03Z,42.805,6.029,13.2964,4.59981,2469.573,2019-5-31T14:09:18Z
2019-05-31T12:12:06Z,42.805,6.029,13.2961,4.59976,2469.62,2019-5-31T14:12:21Z
2019-05-31T12:15:09Z,42.805,6.029,13.2959,4.59993,2469.597,2019-5-31T14:15:24Z
2019-05-31T12:18:12Z,42.805,6.029,13.2961,4.59981,2469.62,2019-5-31T14:18:27Z
2019-05-31T12:21:15Z,42.805,6.029,13.2957,4.59969,2469.634,2019-5-31T14:21:30Z
2019-05-31T12:24:18Z,42.805,6.029,13.2965,4.59976,2469.62,2019-5-31T14:24:33Z
2019-05-31T12:27:21Z,42.805,6.029,13.2960,4.59975,2469.634,2019-5-31T14:27:36Z
2019-05-31T12:30:24Z,42.805,6.029,13.2955,4.59969,2469.597,2019-5-31T14:30:39Z
2019-05-31T12:33:27Z,42.805,6.029,13.2954,4.59972,2469.587,2019-5-31T14:33:42Z
2019-05-31T12:36:30Z,42.805,6.029,13.2966,4.59975,2469.597,2019-5-31T14:36:45Z
2019-05-31T12:39:33Z,42.805,6.029,13.2960,4.59970,2469.62,2019-5-31T14:39:48Z
2019-05-31T12:42:36Z,42.805,6.029,13.2952,4.59966,2469.62,2019-5-31T14:42:51Z
2019-05-31T12:45:39Z,42.805,6.029,13.2957,4.59964,2469.61,2019-5-31T14:45:54Z
2019-05-31T12:48:42Z,42.805,6.029,13.2962,4.59974,2469.61,2019-5-31T14:48:57Z
2019-05-31T12:51:45Z,42.805,6.029,13.2961,4.59974,2469.643,2019-5-31T14:52:00Z
2019-05-31T12:54:48Z,42.805,6.029,13.2955,4.59963,2469.634,2019-5-31T14:55:03Z
2019-05-31T12:57:50Z,42.805,6.029,13.2957,4.59970,2469.62,2019-5-31T14:58:05Z
2019-05-31T13:00:53Z,42.805,6.029,13.2964,4.59963,2469.62,2019-5-31T15:01:08Z
2019-05-31T13:03:56Z,42.805,6.029,13.2958,4.59968,2469.634,2019-5-31T15:04:11Z
2019-05-31T13:06:59Z,42.805,6.029,13.2962,4.59971,2469.634,2019-5-31T15:07:14Z
2019-05-31T13:10:02Z,42.805,6.029,13.2957,4.59973,2469.62,2019-5-31T15:10:17Z
2019-05-31T13:13:05Z,42.805,6.029,13.2957,4.59966,2469.634,2019-5-31T15:13:20Z
2019-05-31T13:16:08Z,42.805,6.029,13.2958,4.59966,2469.634,2019-5-31T15:16:23Z
2019-05-31T13:19:11Z,42.805,6.029,13.2959,4.59968,2469.634,2019-5-31T15:19:26Z
2019-05-31T13:22:14Z,42.805,6.029,13.2958,4.59974,2469.634,2019-5-31T15:22:29Z
2019-05-31T13:25:17Z,42.805,6.029,13.2958,4.59966,2469.62,2019-5-31T15:25:32Z
2019-05-31T13:28:20Z,42.805,6.029,13.2956,4.59963,2469.657,2019-5-31T15:28:35Z
2019-05-31T13:31:23Z,42.805,6.029,13.2955,4.59971,2469.657,2019-5-31T15:31:38Z
2019-05-31T13:34:26Z,42.805,6.029,13.2958,4.59972,2469.61,2019-5-31T15:34:41Z
2019-05-31T13:37:29Z,42.805,6.029,13.2958,4.59963,2469.643,2019-5-31T15:37:44Z
2019-05-31T13:40:32Z,42.805,6.029,13.2953,4.59963,2469.657,2019-5-31T15:40:47Z
2019-05-31T13:43:35Z,42.805,6.029,13.2959,4.59973,2469.667,2019-5-31T15:43:50Z
2019-05-31T13:46:38Z,42.805,6.029,13.2959,4.59960,2469.657,2019-5-31T15:46:53Z
2019-05-31T13:49:41Z,42.805,6.029,13.2953,4.59967,2469.657,2019-5-31T15:49:56Z
2019-05-31T13:52:44Z,42.805,6.029,13.2962,4.59973,2469.667,2019-5-31T15:52:59Z
2019-05-31T13:55:47Z,42.805,6.029,13.2953,4.59971,2469.643,2019-5-31T15:56:02Z
2019-05-31T13:58:50Z,42.805,6.029,13.2960,4.59969,2469.657,2019-5-31T15:59:05Z
2019-05-31T14:01:52Z,42.805,6.029,13.2955,4.59966,2469.657,2019-5-31T16:02:07Z
2019-05-31T14:04:55Z,42.805,6.029,13.2957,4.59970,2469.68,2019-5-31T16:05:10Z
2019-05-31T14:07:58Z,42.805,6.029,13.2956,4.59973,2469.68,2019-5-31T16:08:13Z
2019-05-31T14:11:01Z,42.805,6.029,13.2958,4.59974,2469.667,2019-5-31T16:11:16Z
2019-05-31T14:14:04Z,42.805,6.029,13.2956,4.59968,2469.68,2019-5-31T16:14:19Z
2019-05-31T14:17:07Z,42.805,6.029,13.2958,4.59971,2469.667,2019-5-31T16:17:22Z
2019-05-31T14:20:10Z,42.805,6.029,13.2953,4.59966,2469.667,2019-5-31T16:20:25Z
2019-05-31T14:23:13Z,42.805,6.029,13.2957,4.59975,2469.68,2019-5-31T16:23:28Z
2019-05-31T14:26:16Z,42.805,6.029,13.2957,4.59971,2469.68,2019-5-31T16:26:31Z
2019-05-31T14:29:19Z,42.805,6.029,13.2957,4.59972,2469.69,2019-5-31T16:29:34Z
2019-05-31T14:32:22Z,42.805,6.029,13.2962,4.59973,2469.68,2019-5-31T16:32:37Z
2019-05-31T14:35:25Z,42.805,6.029,13.2965,4.59972,2469.667,2019-5-31T16:35:40Z
2019-05-31T14:38:28Z,42.805,6.029,13.2953,4.59963,2469.704,2019-5-31T16:38:43Z
2019-05-31T14:41:31Z,42.805,6.029,13.2959,4.59975,2469.69,2019-5-31T16:41:46Z
2019-05-31T14:44:34Z,42.805,6.029,13.2957,4.59970,2469.727,2019-5-31T16:44:49Z
2019-05-31T14:47:37Z,42.805,6.029,13.2956,4.59975,2469.68,2019-5-31T16:47:52Z
2019-05-31T14:50:40Z,42.805,6.029,13.2959,4.59959,2469.75,2019-5-31T16:50:55Z
2019-05-31T14:53:43Z,42.805,6.029,13.2953,4.59974,2469.69,2019-5-31T16:53:58Z
2019-05-31T14:56:46Z,42.805,6.029,13.2957,4.59974,2469.704,2019-5-31T16:57:01Z
2019-05-31T14:59:49Z,42.805,6.029,13.2966,4.59986,2469.713,2019-5-31T17:00:04Z
2019-05-31T15:02:52Z,42.805,6.029,13.2954,4.59966,2469.69,2019-5-31T17:03:07Z
2019-05-31T15:05:54Z,42.805,6.029,13.2955,4.59973,2469.713,2019-5-31T17:06:09Z
2019-05-31T15:08:57Z,42.805,6.029,13.2958,4.59973,2469.737,2019-5-31T17:09:12Z
2019-05-31T15:12:00Z,42.805,6.029,13.2958,4.59972,2469.704,2019-5-31T17:12:15Z